Dallas, GA

6:24 AM EST on February 24, 2017 (GMT -0500)
Dallas Paulding County Region

Weather History for KPUJ - April, 2014

Change the Weather History Date:

Wednesday, April 2, 2014

  Actual Average (KMGE) Record (KMGE)
Temperature  
Mean Temperature 70 °F -  
Max Temperature 80 °F 67 °F 86 °F (2012)
Min Temperature 60 °F 47 °F 37 °F (1997)
Cooling Degree Days 5    
Growing Degree Days 20 (Base 50)    
Moisture  
Dew Point 37 °F    
Average Humidity 32    
Maximum Humidity 56    
Minimum Humidity 11    
Precipitation  
Precipitation 0.00 in - - ()
Sea Level Pressure  
Sea Level Pressure 30.10 in    
Wind  
Wind Speed 3 mph (SW)    
Max Wind Speed 10 mph    
Max Gust Speed 17 mph    
Visibility 10 miles    
Events      
Averages and records for this station are not official NWS values.
T = Trace of Precipitation, MM = Missing Value Source: NWS Daily Summary

Daily Weather History Graph

Daily Weather History Graph

Search for Another Location

Airport or City:

Trip Planner

Search our weather history database for the weather conditions in past years. The results will help you decide how hot, cold, wet, or windy it might be!

Date:

Astronomy

Apr. 02, 2014 Rise Set
Actual Time 7:25 AM EDT 8:01 PM EDT
Civil Twilight 7:00 AM EDT 8:26 PM EDT
Nautical Twilight 6:31 AM EDT 8:56 PM EDT
Astronomical Twilight 6:00 AM EDT 9:26 PM EDT
Moon 9:17 AM EDT (4/2) 11:15 PM EDT (4/2)
Length of Visible Light 13h 25m
Length of Day
12h 35m
Waxing Crescent, 10% of the Moon is Illuminated
Apr 2
Waxing Crescent
Apr 7
First Quarter
Apr 15
Full
Apr 22
Last Quarter
Apr 29
New

Hourly Weather History & Observations

Time (EDT) Temp. Dew Point Humidity Pressure Visibility Wind Dir Wind Speed Gust Speed Precip Events Conditions
12:10 AM 66.2 °F 28.4 °F 24% 30.11 in 10.0 mi Calm Calm - N/A   Clear
12:30 AM 64.4 °F 28.4 °F 26% 30.11 in 10.0 mi Calm Calm - N/A   Clear
12:50 AM 64.4 °F 28.4 °F 26% 30.11 in 10.0 mi Calm Calm - N/A   Clear
1:10 AM 62.6 °F 28.4 °F 27% 30.11 in 10.0 mi Calm Calm - N/A   Clear
1:30 AM 64.4 °F 28.4 °F 26% 30.11 in 10.0 mi WSW 3.5 mph - N/A   Clear
1:50 AM 64.4 °F 30.2 °F 28% 30.10 in 10.0 mi WSW 3.5 mph - N/A   Clear
2:10 AM 62.6 °F 30.2 °F 30% 30.10 in 10.0 mi WSW 3.5 mph - N/A   Clear
2:30 AM 62.6 °F 32.0 °F 32% 30.10 in 10.0 mi Calm Calm - N/A   Clear
2:50 AM 64.4 °F 32.0 °F 30% 30.10 in 10.0 mi SW 3.5 mph - N/A   Clear
3:10 AM 62.6 °F 32.0 °F 32% 30.10 in 10.0 mi SW 3.5 mph - N/A   Scattered Clouds
3:30 AM 62.6 °F 32.0 °F 32% 30.09 in 10.0 mi WSW 3.5 mph - N/A   Mostly Cloudy
3:50 AM 60.8 °F 32.0 °F 34% 30.09 in 10.0 mi Calm Calm - N/A   Scattered Clouds
4:10 AM 60.8 °F 32.0 °F 34% 30.09 in 10.0 mi WSW 3.5 mph - N/A   Scattered Clouds
4:30 AM 60.8 °F 32.0 °F 34% 30.09 in 10.0 mi Calm Calm - N/A   Mostly Cloudy
4:50 AM 60.8 °F 33.8 °F 36% 30.09 in 10.0 mi Calm Calm - N/A   Mostly Cloudy
5:10 AM 60.8 °F 33.8 °F 36% 30.09 in 10.0 mi West 4.6 mph - N/A   Mostly Cloudy
5:30 AM 60.8 °F 33.8 °F 36% 30.10 in 10.0 mi West 3.5 mph - N/A   Mostly Cloudy
5:50 AM 60.8 °F 35.6 °F 39% 30.10 in 10.0 mi Calm Calm - N/A   Mostly Cloudy
6:10 AM 60.8 °F 35.6 °F 39% 30.10 in 10.0 mi West 3.5 mph - N/A   Scattered Clouds
6:30 AM 60.8 °F 35.6 °F 39% 30.11 in 10.0 mi Calm Calm - N/A   Mostly Cloudy
6:50 AM 60.8 °F 35.6 °F 39% 30.11 in 10.0 mi WSW 3.5 mph - N/A   Overcast
8:30 AM 60.8 °F 33.8 °F 36% 30.13 in 10.0 mi Calm Calm - N/A   Scattered Clouds
8:50 AM 62.6 °F 35.6 °F 37% 30.13 in 10.0 mi Calm Calm - N/A   Scattered Clouds
9:10 AM 62.6 °F 35.6 °F 37% 30.14 in 10.0 mi Calm Calm - N/A   Mostly Cloudy
9:30 AM 62.6 °F 33.8 °F 34% 30.14 in 10.0 mi West 3.5 mph - N/A   Overcast
9:50 AM 64.4 °F 32.0 °F 30% 30.15 in 10.0 mi West 3.5 mph - N/A   Mostly Cloudy
10:10 AM 66.2 °F 33.8 °F 30% 30.16 in 10.0 mi WSW 3.5 mph - N/A   Scattered Clouds
10:30 AM 69.8 °F 32.0 °F 25% 30.16 in 10.0 mi Calm Calm - N/A   Clear
10:50 AM 71.6 °F 23.0 °F 16% 30.16 in 10.0 mi Calm Calm - N/A   Clear
11:10 AM 71.6 °F 21.2 °F 15% 30.16 in 10.0 mi West 3.5 mph - N/A   Clear
11:30 AM 73.4 °F 15.8 °F 11% 30.16 in 10.0 mi SW 5.8 mph - N/A   Clear
11:50 AM 71.6 °F 19.4 °F 14% 30.15 in 10.0 mi Calm Calm - N/A   Clear
12:50 PM 75.2 °F 28.4 °F 18% 30.14 in 10.0 mi SSW 4.6 mph - N/A   Scattered Clouds
1:10 PM 77.0 °F 26.6 °F 16% 30.14 in 10.0 mi WSW 6.9 mph - N/A   Scattered Clouds
1:30 PM 77.0 °F 26.6 °F 16% 30.13 in 10.0 mi South 5.8 mph - N/A   Clear
1:50 PM 78.8 °F 24.8 °F 14% 30.12 in 10.0 mi West 10.4 mph 17.3 mph N/A   Clear
2:10 PM 78.8 °F 24.8 °F 14% 30.11 in 10.0 mi West 10.4 mph - N/A   Clear
2:30 PM 78.8 °F 32.0 °F 18% 30.11 in 10.0 mi West 5.8 mph - N/A   Clear
2:50 PM 78.8 °F 32.0 °F 18% 30.10 in 10.0 mi WSW 6.9 mph - N/A   Clear
3:10 PM 80.6 °F 35.6 °F 20% 30.09 in 10.0 mi WSW 9.2 mph - N/A   Clear
3:30 PM 78.8 °F 35.6 °F 21% 30.08 in 10.0 mi SW 8.1 mph - N/A   Clear
3:50 PM 78.8 °F 35.6 °F 21% 30.08 in 10.0 mi SW 4.6 mph - N/A   Clear
4:10 PM 80.6 °F 37.4 °F 21% 30.07 in 10.0 mi Calm Calm - N/A   Clear
4:30 PM 80.6 °F 41.0 °F 24% 30.08 in 10.0 mi SW 5.8 mph - N/A   Clear
4:50 PM 80.6 °F 42.8 °F 26% 30.07 in 10.0 mi SSW 8.1 mph - N/A   Clear
5:10 PM 80.6 °F 42.8 °F 26% 30.08 in 10.0 mi SSW 4.6 mph 16.1 mph N/A   Clear
5:30 PM 80.6 °F 41.0 °F 24% 30.08 in 10.0 mi SW 8.1 mph - N/A   Clear
6:10 PM 78.8 °F 42.8 °F 28% 30.07 in 10.0 mi SSW 5.8 mph - N/A   Clear
6:30 PM 78.8 °F 44.6 °F 30% 30.08 in 10.0 mi SSW 6.9 mph - N/A   Clear
6:50 PM 78.8 °F 44.6 °F 30% 30.07 in 10.0 mi SW 4.6 mph - N/A   Clear
7:10 PM 77.0 °F 46.4 °F 34% 30.08 in 10.0 mi SSW 3.5 mph - N/A   Clear
7:30 PM 75.2 °F 46.4 °F 36% 30.08 in 10.0 mi SSW 3.5 mph - N/A   Clear
7:50 PM 73.4 °F 46.4 °F 38% 30.08 in 10.0 mi SSW 3.5 mph - N/A   Clear
8:10 PM 73.4 °F 50.0 °F 44% 30.09 in 10.0 mi SW 3.5 mph - N/A   Clear
8:30 PM 73.4 °F 50.0 °F 44% 30.09 in 10.0 mi SW 3.5 mph - N/A   Clear
8:50 PM 71.6 °F 51.8 °F 50% 30.09 in 10.0 mi SSW 4.6 mph - N/A   Clear
9:10 PM 71.6 °F 51.8 °F 50% 30.09 in 10.0 mi SSW 3.5 mph - N/A   Clear
9:30 PM 71.6 °F 51.8 °F 50% 30.09 in 10.0 mi SW 3.5 mph - N/A   Clear
9:50 PM 71.6 °F 51.8 °F 50% 30.09 in 10.0 mi SSW 4.6 mph - N/A   Clear
10:10 PM 69.8 °F 51.8 °F 53% 30.10 in 10.0 mi Calm Calm - N/A   Clear
10:30 PM 69.8 °F 51.8 °F 53% 30.10 in 10.0 mi SSW 3.5 mph - N/A   Clear
10:50 PM 69.8 °F 53.6 °F 56% 30.10 in 10.0 mi Calm Calm - N/A   Clear
11:10 PM 69.8 °F 53.6 °F 56% 30.10 in 10.0 mi Calm Calm - N/A   Clear
11:30 PM 69.8 °F 53.6 °F 56% 30.08 in 10.0 mi SSW 3.5 mph - N/A   Clear
11:50 PM 69.8 °F 53.6 °F 56% 30.08 in 10.0 mi Calm Calm - N/A   Clear